Miscellaneous Local Product
Issued by NWS Hastings, NE

Home | Current Version | Previous Version | Text Only | Print | Product List | Glossary Off
Versions: 1 2 3 4 5 6 7 8 9 10 11 12 13 14 15 16 17 18 19 20 21 22 23 24 25 26 27 28 29 30 31 32 33 34 35 36 37 38 39 40 41 42 43 44 45 46 47 48 49 50

603
AXUS43 KGID 220702
MISGRI

GID CWA HOURLY WEATHER ROUNDUP
NATIONAL WEATHER SERVICE HASTINGS NE
200 AM CDT FRI JUL 22 2016

NOTE: "FAIR" INDICATES FEW OR NO CLOUDS BELOW 12,000 FEET WITH NO
SIGNIFICANT WEATHER AND/OR OBSTRUCTIONS TO VISIBILITY.

...SOUTH CENTRAL NEBRASKA...

CITY           SKY/WX    TMP DP  RH WIND       PRES   REMARKS
GRAND ISLAND   CLEAR     78  70  76 S5        29.94F
HASTINGS       CLEAR     81  67  62 S9        29.96S
KEARNEY        CLEAR     73  70  88 SE6       29.97S
ORD            CLEAR     74  71  91 CALM      29.94F
YORK           CLEAR     81  70  69 S10       29.94S
AURORA         CLEAR     81  69  67 S8        29.94S
LEXINGTON      CLEAR     74  72  93 NW5       29.99S
HOLDREGE       CLEAR     75  72  91 CALM      29.98R
HEBRON         CLEAR     82  70  68 S8        29.95S

...NEBRASKA PANHANDLE...

CITY           SKY/WX    TMP DP  RH WIND       PRES   REMARKS
CHADRON        CLEAR     67  55  65 SW10      30.07S
ALLIANCE       CLEAR     64  60  87 CALM      30.12F
SCOTTSBLUFF    CLEAR     71  61  70 SE6       30.13S
SIDNEY         CLOUDY    73  66  78 E5        30.17S

...WESTERN AND NORTH CENTRAL NEBRASKA...

CITY           SKY/WX    TMP DP  RH WIND       PRES   REMARKS
VALENTINE      CLOUDY    72  68  87 CALM      30.02S
AINSWORTH      CLEAR     78  73  85 NW7       30.02R
ONEILL         CLEAR     78  74  88 CALM      29.96S
BROKEN BOW     CLEAR     72  71  97 CALM      29.99S
IMPERIAL       CLEAR     74  66  76 N6        30.06F
NORTH PLATTE   CLEAR     71  69  93 CALM      30.02F
MCCOOK         CLEAR     77  71  82 NE3       30.00S

...EASTERN NEBRASKA...

CITY           SKY/WX    TMP DP  RH WIND       PRES   REMARKS
NORFOLK        CLEAR     77  75  93 CALM      29.92F
SO SIOUX CITY  CLEAR     81  78  91 E5        29.92S
TEKAMAH        CLOUDY    82  78  88 CALM      29.91S HX  91
COLUMBUS       CLEAR     82  66  57 S10       29.93S
ALBION         CLEAR     78  72  80 CALM      29.95R
OMAHA EPPLEY   CLOUDY    87  75  67 S10       29.92S HX  96
OFFUTT AFB     CLOUDY    83  76  79 SE6       29.93S HX  91
MILLARD        CLOUDY    86  75  71 CALM      29.92S HX  94
LINCOLN        CLEAR     82  73  74 S10       29.93S
NEBRASKA CITY  PTCLDY    82  74  77 SW13      29.95S
BEATRICE       CLEAR     83  72  70 S7        29.95S
FALLS CITY     CLEAR     83  73  72 S12       29.95S

...NORTHERN KANSAS...

CITY           SKY/WX    TMP DP  RH WIND       PRES   REMARKS
GOODLAND       MOCLDY    82  56  40 N15       30.08F THUNDER
HILL CITY      CLEAR     83  65  54 SW9       29.99S
NORTON         MOSUNNY   79  57  47 SW7       29.98F
SMITH CENTER   CLEAR     75  66  73 SE5       29.97S
BELOIT         CLEAR     82  66  57 SE6       29.95S
HAYS           CLEAR     77  61  57 SW5       30.00S
RUSSELL        CLEAR     80  65  59 S12       29.98R
CONCORDIA      CLEAR     83  68  60 S13       29.96S
SALINA         CLEAR     82  68  62 S7        29.98R
TOPEKA         CLEAR     85  71  63 S7        29.98F HX  90



USA.gov is the U.S. government's official web portal to all federal, state and local government web resources and services.